This is the latest recevied weather packets stored in our database for station/object N7CW. If no packets are shown the sender has not sent any weather packets the latest 10 day(s).
| Time | Temp. | Humidity | Pressure | Rain* | Wind** | Luminosity | Snow |
|---|---|---|---|---|---|---|---|
| 1776995751 | 14.44° C | 22% | 1014.6 hPa | 0 mm | - | 10 W/m² | - |
| 1776995445 | 15° C | 21% | 1014.6 hPa | 0 mm | - | 14 W/m² | - |
| 1776995141 | 15° C | 21% | 1014.5 hPa | 0 mm | - | 17 W/m² | - |
| 1776994839 | 15.56° C | 21% | 1014.5 hPa | 0 mm | - | 20 W/m² | - |
| 1776994538 | 15.56° C | 21% | 1014.4 hPa | 0 mm | - | 25 W/m² | - |
| 1776994234 | 15.56° C | 21% | 1014.6 hPa | 0 mm | - | 31 W/m² | - |
| 1776993932 | 15.56° C | 21% | 1014.4 hPa | 0 mm | - | 38 W/m² | - |
| 1776993629 | 16.11° C | 21% | 1014.4 hPa | 0 mm | - | 45 W/m² | - |
| 1776993326 | 16.11° C | 21% | 1014.6 hPa | 0 mm | - | 54 W/m² | - |
| 1776993023 | 16.11° C | 21% | 1014.5 hPa | 0 mm | - | 64 W/m² | - |
| 1776992720 | 16.11° C | 20% | 1014.4 hPa | 0 mm | - | 75 W/m² | - |
| 1776992416 | 16.11° C | 20% | 1014.4 hPa | 0 mm | - | 86 W/m² | - |
| 1776992114 | 16.11° C | 20% | 1014.4 hPa | 0 mm | - | 98 W/m² | - |
| 1776991810 | 16.67° C | 20% | 1014.2 hPa | 0 mm | - | 111 W/m² | - |
| 1776991507 | 16.67° C | 20% | 1014.5 hPa | 0 mm | - | 125 W/m² | - |
| 1776991202 | 16.67° C | 20% | 1014.4 hPa | 0 mm | - | 139 W/m² | - |
| 1776990898 | 16.67° C | 20% | 1014.5 hPa | 0 mm | - | 153 W/m² | - |
| 1776990595 | 17.78° C | 20% | 1014.4 hPa | 0 mm | - | 168 W/m² | - |
| 1776990293 | 17.22° C | 19% | 1014.6 hPa | 0 mm | - | 182 W/m² | - |
| 1776989988 | 17.78° C | 19% | 1014.6 hPa | 0 mm | - | 197 W/m² | - |
| 1776989684 | 17.78° C | 20% | 1014 hPa | 0 mm | - | 213 W/m² | - |
| 1776989380 | 17.22° C | 19% | 1014.5 hPa | 0 mm | - | 230 W/m² | - |
| 1776989077 | 16.67° C | 18% | 1014.7 hPa | 0 mm | - | 249 W/m² | - |
* Rain latest hour (hover to see other rain measurements)
** Current wind speed in m/s (hover to see current wind gust speed)